GW2838 Weather Reports


time (UTC)temp
F
wind
direction
speed
knots
gust
knots
rain 1hr
in
rain 24hr
in
rain mn
in
humidity
%
barometer
mb
20260505093140 60 198 2.6 6.1 0.00 0.00 0.00 62 1033.8
20260505092016 60 198 1.7 3.5 0.00 0.00 0.00 62 1033.8
20260505091052 60 197 1.7 5.2 0.00 0.00 0.00 61 1033.7
20260505090028 60 212 2.6 7.8 0.00 0.00 0.00 61 1033.8
20260505085044 61 205 2.6 6.1 0.00 0.00 0.00 60 1033.8
20260505084020 61 208 1.7 6.1 0.00 0.00 0.00 60 1033.8
20260505083016 61 211 2.6 6.1 0.00 0.00 0.00 60 1033.7
20260505082052 61 203 2.6 5.2 0.00 0.00 0.00 60 1033.7
20260505081028 61 213 2.6 7.8 0.00 0.00 0.00 60 1033.7
20260505080044 61 206 2.6 6.1 0.00 0.00 0.00 60 1033.7
20260505075020 60 211 3.5 8.7 0.00 0.00 0.00 61 1033.7
20260505074016 60 205 2.6 6.1 0.00 0.00 0.00 61 1033.7
20260505073032 60 206 2.6 8.7 0.00 0.00 0.00 62 1033.7
20260505072028 60 197 2.6 3.5 0.00 0.00 0.00 62 1033.5
20260505071024 59 200 1.7 5.2 0.00 0.00 0.00 63 1033.6
20260505070020 59 216 1.7 3.5 0.00 0.00 0.00 64 1033.4
20260505065016 59 192 0.9 2.6 0.00 0.00 0.00 62 1033.5
20260505064033 59 178 0.9 2.6 0.00 0.00 0.00 61 1033.3
20260505063028 60 214 0.9 2.6 0.00 0.00 0.00 60 1033.4
20260505062024 60 205 0.9 1.7 0.00 0.00 0.00 60 1033.4
20260505061021 61 224 0.9 2.6 0.00 0.00 0.00 59 1033.4
20260505060017 61 208 0.9 1.7 0.00 0.00 0.00 58 1033.5
20260505055053 61 208 0.9 1.7 0.00 0.00 0.00 58 1033.5
20260505054029 61 192 0.9 1.7 0.00 0.00 0.00 57 1033.5
20260505053025 62 187 0.9 1.7 0.00 0.00 0.00 56 1033.6
20260505052021 62 207 0.9 2.6 0.00 0.00 0.00 55 1033.7
20260505051017 63 194 1.7 2.6 0.00 0.00 0.00 55 1033.8
20260505041033 65 203 2.6 5.2 0.00 0.00 0.00 51 1033.5
20260505040029 65 201 2.6 6.1 0.00 0.00 0.00 50 1033.5
20260505035025 66 200 1.7 5.2 0.00 0.00 0.00 50 1033.5
20260505034021 66 213 2.6 6.1 0.00 0.00 0.00 49 1033.4
20260505033018 66 204 1.7 5.2 0.00 0.00 0.00 49 1033.4
20260505032033 67 207 2.6 6.1 0.00 0.00 0.00 48 1033.3
20260505031029 67 203 2.6 6.1 0.00 0.00 0.00 48 1033.4
20260505030025 67 206 2.6 6.1 0.00 0.00 0.00 47 1033.3
20260505025021 67 209 2.6 6.1 0.00 0.00 0.00 47 1033.3
20260505024036 67 209 2.6 6.1 0.00 0.00 0.00 46 1033.5
20260505023032 68 196 1.7 5.2 0.00 0.00 0.00 46 1033.2
20260505022028 68 206 2.6 6.1 0.00 0.00 0.00 46 1033.3
20260505021024 68 191 3.5 7.8 0.00 0.00 0.00 46 1033.1
20260505020021 68 213 2.6 9.6 0.00 0.00 0.00 45 1033.2
20260505015016 68 202 3.5 7.0 0.00 0.00 0.00 45 1033.1
20260505014032 69 188 3.5 7.8 0.00 0.00 0.00 44 1032.9
20260505013028 69 198 2.6 5.2 0.00 0.00 0.00 44 1032.9
20260505012024 69 191 2.6 6.1 0.00 0.00 0.00 43 1032.7
20260505011021 70 192 2.6 7.0 0.00 0.00 0.00 43 1032.8
20260505010016 70 186 3.5 7.0 0.00 0.00 0.00 42 1032.7
20260505005033 71 190 3.5 7.0 0.00 0.00 0.00 42 1032.6
20260505004028 72 174 1.7 5.2 0.00 0.00 0.00 41 1032.4
20260505003025 72 198 2.6 5.2 0.00 0.00 0.00 40 1032.5
20260505002021 72 195 3.5 7.0 0.00 0.00 0.00 40 1032.5
20260505001017 73 192 2.6 6.1 0.00 0.00 0.00 39 1032.4
20260505000033 73 201 5.2 9.6 0.00 0.00 0.00 39 1032.4
20260504235029 73 196 4.3 11.3 0.00 0.00 0.00 38 1032.3
20260504234025 73 193 5.2 11.3 0.00 0.00 0.00 38 1032.2
20260504233022 73 193 5.2 9.6 0.00 0.00 0.00 37 1032.2
20260504232018 74 195 5.2 11.3 0.00 0.00 0.00 37 1032.1
20260504231034 74 207 5.2 18.2 0.00 0.00 0.00 37 1032.1
20260504230030 74 226 6.1 12.2 0.00 0.00 0.00 36 1032.1
20260504225026 75 184 5.2 11.3 0.00 0.00 0.00 36 1032.2
20260504224022 75 191 7.0 16.5 0.00 0.00 0.00 35 1032.2
20260504223058 75 208 4.3 9.6 0.00 0.00 0.00 34 1032.1
20260504222115 76 214 7.0 15.6 0.00 0.00 0.00 35 1032.1
20260504221030 76 224 10.4 23.5 0.00 0.00 0.00 34 1032.2
20260504220026 76 205 7.8 15.6 0.00 0.00 0.00 33 1032.1
20260504215022 76 196 6.1 13.0 0.00 0.00 0.00 33 1032.1
20260504214058 76 196 7.0 16.5 0.00 0.00 0.00 33 1032.0
20260504213035 76 213 5.2 11.3 0.00 0.00 0.00 33 1032.0
20260504212031 77 196 7.8 16.5 0.00 0.00 0.00 33 1032.0
20260504211027 77 191 7.0 13.0 0.00 0.00 0.00 33 1032.0
20260504210043 76 204 6.1 14.8 0.00 0.00 0.00 33 1032.1
20260504205039 76 228 5.2 13.9 0.00 0.00 0.00 33 1032.1
20260504204035 76 198 4.3 9.6 0.00 0.00 0.00 34 1032.1
20260504203031 76 173 7.0 15.6 0.00 0.00 0.00 34 1032.4
20260504202028 76 198 5.2 13.9 0.00 0.00 0.00 33 1032.5
20260504201023 75 195 6.1 11.3 0.00 0.00 0.00 33 1032.7
20260504200019 75 223 6.1 14.8 0.00 0.00 0.00 34 1032.8
20260504195035 75 181 9.6 20.9 0.00 0.00 0.00 33 1032.9
20260504194031 75 213 6.1 13.0 0.00 0.00 0.00 34 1033.0
20260504193107 75 231 6.1 13.9 0.00 0.00 0.00 34 1033.2
20260504192024 75 226 6.1 16.5 0.00 0.00 0.00 34 1033.5
20260504191019 75 217 5.2 12.2 0.00 0.00 0.00 35 1033.7
20260504190016 75 188 7.0 11.3 0.00 0.00 0.00 35 1033.8
20260504185032 75 214 4.3 9.6 0.00 0.00 0.00 35 1033.8
20260504184028 74 198 4.3 13.9 0.00 0.00 0.00 36 1034.0
20260504183024 74 184 5.2 11.3 0.00 0.00 0.00 36 1034.1
20260504182020 74 220 7.0 13.0 0.00 0.00 0.00 36 1034.4
20260504181016 74 181 6.1 14.8 0.00 0.00 0.00 36 1034.5
20260504180033 73 207 4.3 13.9 0.00 0.00 0.00 36 1034.6
20260504175048 74 211 4.3 13.9 0.00 0.00 0.00 36 1034.7
20260504174044 73 197 4.3 12.2 0.00 0.00 0.00 37 1034.7
20260504173020 73 189 6.1 14.8 0.00 0.00 0.00 36 1034.8
20260504172056 72 203 4.3 11.3 0.00 0.00 0.00 36 1035.1
20260504171033 72 228 4.3 11.3 0.00 0.00 0.00 36 1035.3
20260504151022 69 219 2.6 6.1 0.00 0.00 0.00 37 1036.4
20260504141019 70 204 2.6 6.1 0.00 0.00 0.00 38 1036.7